Flag for Germany Weather past 2 weeks in Leinfelden-Echterdingen, Baden-Württemberg, Germany

Now
63 °F

Passing clouds.


Feels Like: 63 °F
Forecast: 46 / 68 °F
Wind: 6 mph from North

Location: Stuttgart-Echterdingen

Current Time: Oct 1, 2014 at 8:46:35 PM

Latest Report: Oct 1, 2014 at 7:50 PM


Visibility: N/A

Pressure: 30.33 "Hg

Humidity: 83%

Dew point: 57 °F

Location of Leinfelden-EchterdingenLocation

Historic Weather in Leinfelden-Echterdingen — Graph

°F

Leinfelden-Echterdingen temperature yesterday

Maximum temperature yesterday: 66 °F (at 2:50 PM)
Minimum temperature yesterday: 57 °F (at 11:50 PM)
Average temperature yesterday: 62 °F

Past Weeks' High & Low Weather Summary

 TemperatureHumidityPressure
High77 °F (Sep 29, 2:50 PM)100% (Sep 17, 3:20 AM)30.39 "Hg (Sep 17, 3:20 AM)
Low39 °F (Sep 24, 3:20 AM)36% (Sep 29, 4:20 PM)29.89 "Hg (Sep 17, 2:50 PM)
Average58 °F83%30.13 "Hg
* Reported Sep 16 7:20 PM — Oct 1 7:50 PM, Leinfelden-Echterdingen, Weather by CustomWeather, © 2014

Note: Actual official high and low records may vary slightly from our data, if they occured in-between our weather recording intervals... More about our weather records

Advertising

Leinfelden-Echterdingen weather history for previous 24 hours

 ConditionsComfort  
Time TempWeatherWind HumidityBarometerVisibility
7:50 PM
Oct 1
63 °FPassing clouds.6 mph83%30.33 "HgN/A
7:20 PM64 °FScattered clouds.7 mph78%30.33 "HgN/A
6:50 PM66 °FPassing clouds.5 mph68%30.33 "HgN/A
6:20 PM66 °FPassing clouds.6 mph68%30.33 "HgN/A
5:50 PM68 °FPassing clouds.6 mph64%30.33 "HgN/A
5:20 PM66 °FPassing clouds.6 mph68%30.30 "HgN/A
4:50 PM68 °FPassing clouds.3 mph64%30.30 "HgN/A
4:20 PM68 °FPassing clouds.6 mph64%30.30 "HgN/A
3:50 PM68 °FPassing clouds.2 mph64%30.33 "HgN/A
3:20 PM68 °FPassing clouds.2 mph64%30.33 "HgN/A
2:50 PM66 °FPassing clouds.5 mph73%30.33 "HgN/A
2:20 PM68 °FPassing clouds.3 mph73%30.33 "HgN/A
1:50 PM66 °FPassing clouds.3 mph78%30.33 "HgN/A
1:20 PM64 °FScattered clouds.5 mph83%30.36 "HgN/A
12:50 PM64 °FScattered clouds.5 mph88%30.36 "Hg5 mi
12:20 PM63 °FScattered clouds.3 mph88%30.36 "Hg4 mi
11:50 AM63 °FScattered clouds.2 mph88%30.36 "Hg4 mi
11:20 AM59 °FFog.2 mph100%30.36 "Hg2 mi
10:50 AM59 °FSleet. Cloudy.2 mph100%30.36 "Hg1 mi
10:20 AM57 °FSleet. Cloudy.2 mph100%30.33 "Hg1 mi
9:50 AM57 °FCool.2 mph100%30.33 "Hg1 mi
9:20 AM57 °FFog.2 mph100%30.33 "Hg1 mi
8:50 AM57 °FPartly sunny.2 mph100%30.33 "Hg1 mi
8:20 AM55 °FFog.2 mph100%30.33 "Hg1 mi
7:50 AM55 °FFog.2 mph100%30.33 "Hg1 mi
7:20 AM55 °FFog.2 mph100%30.30 "Hg1 mi
6:50 AM54 °FFog.2 mph100%30.30 "Hg1 mi
6:20 AM54 °FSleet. Overcast.1 mph100%30.30 "Hg1 mi
5:50 AM54 °FCool.1 mph100%30.30 "Hg1 mi
5:20 AM54 °FSleet. Overcast.No wind100%30.30 "Hg1 mi
4:50 AM54 °FCool.1 mph100%30.30 "Hg1 mi
4:20 AM54 °FFog.1 mph100%30.30 "Hg0 mi
3:50 AM55 °FSleet. Overcast.1 mph100%30.30 "Hg2 mi
3:20 AM55 °FSleet. Overcast.No wind100%30.30 "Hg4 mi
2:50 AM55 °FSleet. Fog.2 mph94%30.30 "Hg4 mi
2:20 AM54 °FSleet. Fog.2 mph100%30.30 "Hg4 mi
1:50 AM55 °FFog.1 mph94%30.30 "Hg4 mi
1:20 AM55 °FFog.1 mph100%30.30 "Hg5 mi
12:50 AM57 °FFog.1 mph94%30.30 "Hg5 mi
12:20 AM57 °FFog.2 mph94%30.30 "Hg6 mi
11:50 PM
Sep 30
57 °FFog.2 mph94%30.33 "HgN/A
11:20 PM59 °FLight fog.3 mph94%30.33 "HgN/A
10:50 PM59 °FLight fog.3 mph88%30.30 "HgN/A
10:20 PM59 °FLight fog.1 mph94%30.30 "HgN/A
9:50 PM59 °FLight fog.1 mph94%30.33 "HgN/A
9:20 PM59 °FLight fog.2 mph88%30.33 "HgN/A
8:50 PM61 °FClear.2 mph94%30.33 "Hg10 mi
8:20 PM61 °FClear.2 mph94%30.30 "Hg10 mi
Weather by CustomWeather, © 2014

See weather overviewHow to use our weather pages